DELTA 1 DEB, 10712

Orbit data source: Space-Track

DELTA 1 DEB, 10712 is space debris in SSO originally from a launch on Thu, 29 Jul 1976 UTC launched from the Air Force Western Test Range (AFWTR). Debris objects in space refer to the collection of defunct objects orbiting the Earth. Examples of debris include non-operational satellites, rocket bodies, and fragments generated from explosions, collisions, or faulty payload assembly.

Loading next visibility...
Identifier
10712, 1976-077AH
Orbit
SSO
Country
Flag of USUS
Related business
Manufacturer
Unknown
Mission
Spacecraft
Bus & Motor
Unknown
Mass
Unknown
Launch date (UTC)
1976-07-29 (50 years ago)
Launch vehicle
Unknown
Launch site
Air Force Western Test Range (AFWTR)
Object type
Payload
Rocket body
Debris
Shape & HBR
Unknown shape, 0.2 m
Radar Cross Section
Medium (>0.1 m² and <1 m²)

Expand to show TLE details & history
Last TLE update: 2 days ago

TLE from 2 days ago
0 DELTA 1 DEB
1 10712U 76077AH  26170.64786309  .00000125  00000-0  12559-2 0  9999
2 10712 102.2240 304.3640 0078803  99.4469 274.4948 12.40584110247963
Epoch: 2026-06-19T15:32Z
TLE epoch observation values (Epoch: 2026-06-19T15:32:55.370Z)
Latitude
12.70733°
Longitude
160.47301°
Altitude
1,501.545 km
Speed
7.117 km/s
True Right ascension
20h 06m 18s
True Declination
12° 38' 26"
Sunlit
Object was in full shadow at epoch
Visualization orbit readout
Latitude
Unknown
Longitude
Unknown
Altitude
Unknown
Speed
Unknown
Apparent Right ascension
Unknown
Apparent Declination
Unknown
Sunlit
N/A
Visualization observer readout
Local Sidereal Time
06:13:01
Azimuth
Unknown
Elevation
Unknown
Doppler factor
Unknown
Orbital elements
Apogee altitude
1,563.811 km
Perigee altitude
1,439.62 km
Semi-major axis
7,879.852 km
Eccentricity
0.00788
Inclination
102.224°
RAAN
304.364°
Arg. of periapsis
99.4469°
True anomaly
273.5939°
Mean anomaly
274.4948°
Eccentric anomaly
274.04442°
Mean motion
3.10289 °/min
Orbital period
116.02 mins
BSTAR
0.0012559
Loading maneuver chart data...
Computing Atmospheric mass density...
Loading historical data...
Loading historical data...
Loading historical data...
Loading historical data...
Loading historical data...
Loading historical data...
Loading historical data...

Documentation

Showing up to 5 results
|